Flight Track Log - Related Links

Times and Time Zones

All times are in EDT time to prevent confusion due to time zone crossing. See the C-GRJR flight status page for this flight to view local times or setup timezone preferences in your user account.

Time Position Orientation Groundspeed Altitude Reporting Facility
EDT Latitude Longitude Course Direction KTS MPH feet Rate Location/Type
Mon 10:36:16 PM 39.7025 -77.7600 271° West 380 437 1,800  Level Washington Center
Mon 10:37:16 PM 39.7036 -77.8167 271° West 369 425 4,200 2,361 Climbing Washington Center
Mon 10:38:18 PM 39.7406 -77.8475 327° Northwest 175 201 6,600 2,129 Climbing Washington Center
Mon 10:40:22 PM 39.8375 -77.8983 338° Northwest 173 199 10,800 2,054 Climbing Cleveland Center
Mon 10:41:22 PM 39.8922 -77.9258 339° North 195 224 12,900 2,150 Climbing Cleveland Center
Mon 10:42:22 PM 39.9514 -77.9561 339° North 213 245 15,100 2,050 Climbing Cleveland Center
Mon 10:43:22 PM 40.0083 -77.9811 341° North 213 245 17,000 1,550 Climbing Cleveland Center
Mon 10:44:22 PM 40.0758 -78.0164 338° Northwest 220 253 18,200 1,350 Climbing Cleveland Center
Mon 10:45:22 PM 40.1453 -78.0436 343° North 239 275 19,700 1,500 Climbing Cleveland Center
Mon 10:46:22 PM 40.2147 -78.0708 343° North 251 289 21,200 1,150 Climbing Cleveland Center
Mon 10:47:22 PM 40.2861 -78.1036 341° North 256 295 22,000 900 Climbing Cleveland Center
Mon 10:48:22 PM 40.3619 -78.1333 343° North 266 306 23,000 600 Climbing Cleveland Center
Mon 10:49:22 PM 40.4461 -78.1686 342° North 285 328 23,200 500 Climbing Cleveland Center
Mon 10:50:22 PM 40.5239 -78.2011 342° North 308 354 24,000 1,050 Climbing Cleveland Center
Mon 10:51:22 PM 40.6058 -78.2367 342° North 308 354 25,300 1,000 Climbing Cleveland Center
Mon 10:52:22 PM 40.6878 -78.2692 343° North 308 354 26,000 350 Climbing Cleveland Center
Mon 10:53:22 PM 40.7761 -78.3072 342° North 314 361 26,000  Level Cleveland Center
Mon 10:54:22 PM 40.8750 -78.3478 343° North 339 390 26,000  Level Cleveland Center
Mon 10:55:22 PM 40.9697 -78.3886 342° North 348 400 26,000  Level Cleveland Center
Mon 10:56:22 PM 41.0661 -78.4211 346° North 354 407 26,000  Level Cleveland Center
Mon 10:57:22 PM 41.1628 -78.4567 345° North 354 407 26,000  Level Cleveland Center
Mon 10:58:22 PM 41.2592 -78.4922 345° North 359 413 26,000  Level Cleveland Center
Mon 10:59:23 PM 41.3600 -78.5250 346° North 364 419 26,000  Level Cleveland Center
Mon 11:00:22 PM 41.4647 -78.5603 346° North 358 412 26,000  Level Cleveland Center
Mon 11:01:22 PM 41.5614 -78.5933 346° North 358 412 26,000  Level Cleveland Center
Mon 11:02:22 PM 41.6578 -78.6267 346° North 358 412 26,000  Level Cleveland Center
Mon 11:03:22 PM 41.7564 -78.6597 346° North 358 412 26,000 -250 Level Cleveland Center
Mon 11:04:22 PM 41.8506 -78.6931 345° North 358 412 25,500 -500 Descending Cleveland Center
Mon 11:05:22 PM 41.9450 -78.7267 345° North 358 412 25,000 -600 Descending Cleveland Center
Mon 11:06:22 PM 42.0350 -78.7575 346° North 349 402 24,300 -700 Descending Cleveland Center
Mon 11:07:22 PM 42.1189 -78.7889 344° North 328 377 23,600 -900 Descending Cleveland Center
Mon 11:08:22 PM 42.2028 -78.8172 346° North 311 358 22,500 -1,350 Descending Cleveland Center
Mon 11:09:22 PM 42.2886 -78.8458 346° North 311 358 20,900 -1,650 Descending Cleveland Center
Mon 11:10:22 PM 42.3789 -78.8797 345° North 316 364 19,200 -1,850 Descending Cleveland Center
Mon 11:11:22 PM 42.4689 -78.9142 344° North 322 371 17,200 -1,850 Descending Cleveland Center
Mon 11:12:22 PM 42.5444 -78.9375 347° North 321 369 15,500 -2,050 Descending Cleveland Center
Mon 11:13:22 PM 42.6197 -78.9636 346° North 299 344 13,100 -2,300 Descending Cleveland Center
Mon 11:14:22 PM 42.6953 -78.9900 346° North 288 331 10,900 -2,500 Descending Cleveland Center
Mon 11:15:22 PM 42.7747 -79.0219 344° North 277 319 8,100 -2,800 Descending Cleveland Center

Login

Don't have an account? Register now (free) for customized features, flight alerts, and more!